Regional Weather Roundup
Issued by NWS

Current Version | Previous Version | Text Only | Print | Product List | Glossary Off
Versions: 1 2 3 4 5 6 7 8 9 10 11 12 13 14 15 16 17 18 19 20 21 22 23 24 25 26 27 28

000
ASUS44 KBMX 272110
RWRAL

ALABAMA REGIONAL WEATHER ROUNDUP
NATIONAL WEATHER SERVICE BIRMINGHAM AL
400 PM CDT FRI MAY 27 2016

NOTE: "FAIR" INDICATES FEW OR NO CLOUDS BELOW 12,000 FEET
WITH NO SIGNIFICANT WEATHER AND/OR OBSTRUCTIONS TO VISIBILITY.

THE REMARK "TC" DENOTES TEMPERATURE IN DEGREES CELSIUS.

ALZ001>011-014-016>018-020-272200-
NORTH ALABAMA

CITY           SKY/WX    TMP DP  RH WIND       PRES   REMARKS
MUSCLE SHOALS  CLOUDY    84  62  47 S12       29.96F
HUNTSVILLE     CLOUDY    87  62  43 S12       29.97F
DECATUR        CLOUDY    83  65  54 S9        29.97F
HALEYVILLE     FAIR      83  65  54 S14G21    29.99F
GADSDEN        SUNNY     86  65  49 S8        29.98F
$$

ALZ012-013-022-023-030>036-040>044-272200-
WEST CENTRAL ALABAMA

CITY           SKY/WX    TMP DP  RH WIND       PRES   REMARKS
TUSCALOOSA     SUNNY     85  62  46 SE10      29.96F
$$

ALZ015-024>027-033>036-040>044-272200-
CENTRAL ALABAMA

CITY           SKY/WX    TMP DP  RH WIND       PRES   REMARKS
BIRMINGHAM     PTSUNNY   89  59  37 S8        30.00F
MONTGOMERY     MOSUNNY   88  61  40 E13       29.97F
SHELBY CO ARPT MOSUNNY   86  62  44 S9G18     29.98F
MAXWELL AFB    MOSUNNY   90  62  38 SE8       29.96F HX  90
GREENVILLE     PTSUNNY   86  61  42 VRB5      29.97F
$$

ALZ019-021-028-029-037-038-045>048-272200-
EAST CENTRAL ALABAMA

CITY           SKY/WX    TMP DP  RH WIND       PRES   REMARKS
ANNISTON       SUNNY     87  62  43 S12       30.00F
ALEXANDER CITY SUNNY     88  70  55 SE8       30.01F HX  92
AUBURN         PTSUNNY  N/A N/A N/A VRB7      30.03F
$$

ALZ051>064-272200-
SOUTHWEST ALABAMA

CITY           SKY/WX    TMP DP  RH WIND       PRES   REMARKS
MOBILE         PTSUNNY   84  64  50 SE16      29.95F
BROOKLEY FIELD SUNNY     82  71  69 S12       29.96F
EVERGREEN      PTSUNNY   86  65  49 S6        29.96F
$$

ALZ049-050-065>069-272200-
SOUTHEAST ALABAMA

CITY           SKY/WX    TMP DP  RH WIND       PRES   REMARKS
DOTHAN         PTSUNNY   87  58  37 S9        30.03F
OZARK          MOSUNNY   88  61  40 E5        29.98F
TROY           MOSUNNY   89  62  40 E14       29.99F
EUFAULA        FAIR      90  59  35 E9G17     29.98F
$$




USA.gov is the U.S. government's official web portal to all federal, state and local government web resources and services.